Lexington Weather

Lexington, Massachusetts, USA

34°F
4/16/2021 9:38am 
  • Lexington Conditions: Snow, Mist, Overcast
  • Temperature: 34.0°F / 1.1°CColder 3.4°F than last hour.
  • Dew Point: 32.7°FDecreased 3.4°Fsince last hour.
  • Relative Humidity: 95
  • Wind: Calm, 10-min avg: Calm, gust: None
  • Barometer: 29.49 in Steady
  • Visibility: ½ mile
  • Snow Today: 0.3 in
  •   

Regional Weather Roundup
for Boston / Norton, MA

        
000
ASUS41 KBOX 140105
RWRBOX

REGIONAL WEATHER ROUNDUP
NATIONAL WEATHER SERVICE BOSTON/NORTON MA
900 PM EDT TUE APR 13 2021

NOTE:  "FAIR" INDICATES FEW OR NO CLOUDS BELOW 12,000 FEET WITH NO 
SIGNIFICANT WEATHER AND/OR OBSTRUCTIONS TO VISIBILITY.

MAZALL-140200-
EASTERN MASSACHUSETTS
  
CITY           SKY/WX    TMP DP  RH WIND       PRES   REMARKS
BOSTON         MOCLDY    52  40  63 E5        30.05R                  
BEVERLY        NOT AVBL                                               
LAWRENCE       CLOUDY    55  40  56 SE3       30.04S                  
BEDFORD        MOCLDY    51  41  68 CALM      30.03R                  
BLUE HILL        N/A     50  38  63 E3        30.02S                  
NORWOOD        CLEAR     47  39  74 CALM      30.04R                  
MARSHFIELD     PTCLDY    45  39  81 CALM      30.06R                  
PLYMOUTH       CLEAR     42  38  85 CALM      30.04R                  
TAUNTON        CLEAR     41  38  89 S3        30.04R                  
NEW BEDFORD    CLEAR     45  39  79 CALM      30.04R                  
$$

MAZALL-140200-
CAPE COD AND THE ISLANDS
  
CITY           SKY/WX    TMP DP  RH WIND       PRES   REMARKS
FALMOUTH       NOT AVBL                                               
HYANNIS        CLEAR     42  38  85 CALM      30.04R                  
CHATHAM        CLEAR     45  38  76 VRB3      30.05R                  
PROVINCETOWN   CLEAR     40  38  93 CALM      30.06R                  
NANTUCKET      CLEAR     44  40  85 N10       30.04R                  
MARTHAS VNYRD  CLEAR     43  37  79 NE5       30.05R                  
$$
 
MAZALL-140200-
CENTRAL AND WESTERN MASSACHUSETTS
  
CITY           SKY/WX    TMP DP  RH WIND       PRES   REMARKS
WORCESTER      CLEAR     53  39  59 S5        30.04S                  
FITCHBURG      CLEAR     55  41  59 CALM      30.04R                  
ORANGE         CLOUDY    57  44  62 CALM      30.03S                  
SPRINGFIELD    CLOUDY    60  41  49 CALM      30.01S                  
WESTFIELD      CLOUDY    58  45  62 CALM      30.02S                  
NORTH ADAMS    CLOUDY    54  45  71 CALM      30.02R                  
PITTSFIELD     CLOUDY    54  43  66 CALM      30.02R                  
$$
 
RIZALL-140200-
RHODE ISLAND
  
CITY           SKY/WX    TMP DP  RH WIND       PRES   REMARKS
PROVIDENCE     CLEAR     53  39  59 W5        30.05R                  
NEWPORT        CLEAR     45  37  73 CALM      30.05R                  
BLOCK ISLAND   CLEAR     44  38  79 NW8       30.07R                  
SMITHFIELD     CLEAR     48  40  73 CALM      30.05S                  
WESTERLY       CLEAR     44  40  85 CALM      30.07R                  
$$
 
CTZALL-140200-
CONNECTICUT
  
CITY           SKY/WX    TMP DP  RH WIND       PRES   REMARKS
BRADLEY INTL   CLOUDY    58  40  51 S8        30.03R                  
HARTFORD       CLOUDY    56  40  55 S9        30.04R                  
BRIDGEPORT     CLEAR     50  40  68 CALM      30.06R                  
DANBURY        PTCLDY    55  41  59 SE7       30.05R                  
GROTON         CLEAR     45  41  86 SW5       30.07R                  
NEW HAVEN      CLEAR     49  43  80 SE3       30.07R                  
CHESTER        FAIR     N/A N/A N/A S5        30.06S                  
MERIDEN        MOCLDY    52  39  61 S8        30.06R                  
WILLIMANTIC    PTCLDY    54  40  59 S7        30.05R                  
OXFORD         CLOUDY    49  42  77 S7        30.06R                  
$$

MEZ002-015-021-024-NHZ003-005-008-011-012-014-VTZ005-008-140200-
NORTHERN NEW ENGLAND
  
CITY           SKY/WX    TMP DP  RH WIND       PRES   REMARKS
PORTLAND ME    PTCLDY    48  41  76 SE9       30.05R                  
BANGOR ME      CLEAR     50  36  58 E8        30.05R                  
CONCORD NH     CLOUDY    57  41  55 CALM      30.02R                  
MANCHESTER NH  MOCLDY    57  40  52 S6        30.01R                  
NASHUA NH      CLOUDY    53  42  66 CALM      30.04R                  
PORTSMOUTH NH  MOCLDY    50  36  59 CALM      30.05R                  
JAFFREY NH     CLOUDY    53  44  71 S3        30.03R                  
KEENE NH       CLOUDY    56  46  69 CALM      30.03R                  
BURLINGTON VT  CLOUDY    62  41  46 NW3       30.02R                  
MT. WASHINGTON CLOUDY    35  34  96 NW16        N/A  WCI  24          
$$

NYZ052-076-140200-
EASTERN NEW YORK
  
CITY           SKY/WX    TMP DP  RH WIND       PRES   REMARKS
ALBANY         MOCLDY    55  43  63 CALM      30.02R                  
NEW YORK CITY  PTCLDY    62  39  42 CALM      30.03R                  
$$
 
ANZALL-140200-
MARINE OBSERVATIONS
  
STATION/POSITION TIME  TEMP    WIND        PRES    VSBY  WAVE
                       AIR SEA DIR/SP/G                  HT/PER
                 (UTC) (F)     (DEG/KT/KT) (MB)    (MI)  (FT/S)
BOSTON BUOY      0050   46 45  140/  2/  4 1018.1R         5/ 8
BUZZARDS BAY     0000           30/  9/  9 1018.0R
NANTUCKET SOUND  0050      47                N/A           1/ 3
MASS BAY-STELLWA 0004   47     240/  2/  4 1016.5R  1 7/8  4/ 8
ISLE OF SHOALS   0000   51     210/  6/  7 1016.4R
S OF BLOCK IS    0026      44                N/A           4/ 7
$$

......................KEY.........................
  SKY/WX - SKY CONDITION/PRESENT WEATHER
  TMP    - TEMPERATURE IN FAHRENHEIT
  DWPT   - DEWPOINT IN FAHRENHEIT
  RH     - RELATIVE HUMIDITY IN PERCENT
  WIND   - DIRECTION AND SPEED IN MPH
  PRES   - MEAN SEA LEVEL PRESSURE IN INCHES OF HG
  WCI    - WIND CHILL INDEX
  VSB    - VISIBILITY IN MILES
  HX     - HEAT INDEX
  TC     - TEMPERATURE IN CELSIUS
  VRB    - VARIABLE WIND DIRECTION
  N/A    - NOT AVAILABLE
  
      

Other recent Regional Weather Roundups

Fri Apr 16, 9:04am

Fri Apr 16, 8:04am

Fri Apr 16, 7:04am

Fri Apr 16, 6:04am

Fri Apr 16, 5:04am

Fri Apr 16, 4:04am

Fri Apr 16, 3:04am

Fri Apr 16, 2:04am

Fri Apr 16, 1:04am

Fri Apr 16, 12:04am

Thu Apr 15, 11:05pm

Thu Apr 15, 10:04pm

Thu Apr 15, 9:04pm

Thu Apr 15, 8:04pm

Thu Apr 15, 7:05pm

Thu Apr 15, 6:04pm

Thu Apr 15, 5:05pm

Thu Apr 15, 4:04pm

Thu Apr 15, 3:05pm

Thu Apr 15, 2:04pm

Thu Apr 15, 1:05pm

Thu Apr 15, 12:04pm

Thu Apr 15, 11:04am

Thu Apr 15, 10:05am

Thu Apr 15, 9:04am

Thu Apr 15, 8:04am

Thu Apr 15, 7:04am

Thu Apr 15, 6:04am

Thu Apr 15, 5:04am

Thu Apr 15, 4:04am

Thu Apr 15, 3:04am

Thu Apr 15, 2:04am

Thu Apr 15, 1:04am

Thu Apr 15, 12:04am

Wed Apr 14, 11:04pm

Wed Apr 14, 10:04pm

Wed Apr 14, 9:04pm

Wed Apr 14, 8:04pm

Wed Apr 14, 7:04pm

Wed Apr 14, 6:04pm

Wed Apr 14, 5:05pm

Wed Apr 14, 4:04pm

Wed Apr 14, 3:05pm

Wed Apr 14, 2:04pm

Wed Apr 14, 1:05pm

Wed Apr 14, 12:04pm

Wed Apr 14, 11:04am

Wed Apr 14, 10:04am

Wed Apr 14, 9:04am

Wed Apr 14, 8:04am

Wed Apr 14, 7:04am

Wed Apr 14, 6:04am

Wed Apr 14, 5:04am

Wed Apr 14, 4:04am

Wed Apr 14, 3:04am

Wed Apr 14, 2:04am

Wed Apr 14, 1:04am

Wed Apr 14, 12:04am

Tue Apr 13, 11:04pm

Tue Apr 13, 10:05pm

Tue Apr 13, 8:05pm

Tue Apr 13, 7:04pm

Tue Apr 13, 6:04pm

Tue Apr 13, 5:05pm

Tue Apr 13, 4:04pm

Tue Apr 13, 3:04pm

Tue Apr 13, 2:05pm

Tue Apr 13, 1:04pm

Tue Apr 13, 12:05pm

Tue Apr 13, 11:05am

Tue Apr 13, 10:04am

Tue Apr 13, 9:04am

Tue Apr 13, 8:04am

Tue Apr 13, 7:04am

Tue Apr 13, 6:04am

Tue Apr 13, 5:04am

Tue Apr 13, 4:04am

Tue Apr 13, 3:04am

Tue Apr 13, 2:04am

Tue Apr 13, 1:04am

Tue Apr 13, 12:05am

Mon Apr 12, 11:04pm

Mon Apr 12, 10:04pm

Mon Apr 12, 9:04pm

Mon Apr 12, 8:04pm

Mon Apr 12, 7:05pm

Mon Apr 12, 6:04pm

Mon Apr 12, 5:04pm

Mon Apr 12, 4:04pm

Mon Apr 12, 3:05pm

Mon Apr 12, 2:04pm

Mon Apr 12, 1:05pm

Mon Apr 12, 12:04pm

Mon Apr 12, 11:04am

Mon Apr 12, 10:04am

Mon Apr 12, 9:04am

Mon Apr 12, 8:04am

Mon Apr 12, 7:04am

Mon Apr 12, 6:04am

Mon Apr 12, 5:04am

Mon Apr 12, 4:04am

Mon Apr 12, 3:04am

Mon Apr 12, 2:04am

Mon Apr 12, 1:05am

Mon Apr 12, 12:04am

Sun Apr 11, 11:04pm

Sun Apr 11, 10:04pm

Sun Apr 11, 9:04pm

Sun Apr 11, 8:04pm

Sun Apr 11, 7:04pm

Sun Apr 11, 6:05pm

Sun Apr 11, 5:05pm

Sun Apr 11, 4:04pm

Sun Apr 11, 3:05pm

Sun Apr 11, 2:05pm

Sun Apr 11, 1:05pm

Sun Apr 11, 12:04pm

Sun Apr 11, 11:05am

Sun Apr 11, 10:05am

Sun Apr 11, 9:04am

Sun Apr 11, 8:04am

Sun Apr 11, 7:04am

Sun Apr 11, 6:04am

Sun Apr 11, 5:04am

Sun Apr 11, 4:04am

Sun Apr 11, 3:04am

Sun Apr 11, 2:04am

Sun Apr 11, 1:05am

Sun Apr 11, 12:04am

Sat Apr 10, 11:05pm

Sat Apr 10, 10:04pm

Sat Apr 10, 9:04pm

Sat Apr 10, 8:04pm

Sat Apr 10, 7:05pm

Sat Apr 10, 6:04pm

Sat Apr 10, 5:04pm

Sat Apr 10, 4:04pm

Sat Apr 10, 3:04pm

Sat Apr 10, 2:05pm

Sat Apr 10, 1:04pm

Sat Apr 10, 12:04pm

Sat Apr 10, 11:04am

Sat Apr 10, 10:04am

Sat Apr 10, 9:04am

Sat Apr 10, 8:04am

Sat Apr 10, 7:04am

Sat Apr 10, 6:04am

Sat Apr 10, 5:04am

Sat Apr 10, 4:04am

Sat Apr 10, 3:04am

Sat Apr 10, 2:04am

Sat Apr 10, 1:05am

Sat Apr 10, 12:04am

Fri Apr 9, 11:04pm

Fri Apr 9, 10:05pm

Fri Apr 9, 9:04pm

Fri Apr 9, 8:05pm

Fri Apr 9, 7:05pm

Fri Apr 9, 6:04pm

Fri Apr 9, 5:04pm

Fri Apr 9, 4:05pm

Fri Apr 9, 3:05pm

Fri Apr 9, 2:04pm

Fri Apr 9, 1:04pm

Fri Apr 9, 12:04pm

Fri Apr 9, 11:05am

Fri Apr 9, 10:04am

Meta data:

ID: 61d99014-d2f0-43d7-9b58-c7906a245f94
Link: https://api.weather.gov/products/61d99014-d2f0-43d7-9b58-c7906a245f94